Location: Apalco
(33.3585°N, 93.4602°W)
Time: 11:33:58
(UTC+00:00)

Nauka - Pass Details

Date: 03 October 2021
Orbit: 417 x 423 km, 51.6° (Epoch: 24 October)

Event Time Altitude Azimuth Distance (km) Brightness Sun altitude
Rises 01:18:13 0° 328° (NNW) 2,363 ? -17.9°
Reaches altitude 10° 01:20:52 10° 350° (N) 1,498 ? -18.4°
Enters shadow 01:22:27 16° 17° (NNE) 1,193 ? -18.8°
